NICK1: Arkansas River nr Nickerson, KS

Data processed at Sat Dec 09 2017 23:11


All information presented herein is the property of the government of the United States of America and may be revised or deleted at any time without prior notice.
Dissemination of this information without the expressed written consent of the Public Affairs Office, Tulsa District U.S. Army Corps of Engineers is strictly prohibited.
These data are gathered electronically and, as presented, have not undergone any form of quality control. These data are not guaranteed to be valid or correct.
Go to home page.
Go to station list.

Upstream stations:

Downstream station:
Previous Day
Next Day
Current Day
    
SHEF ID:       NICK1     ARKANSAS R NR NICKERSON, KS
STATION TYPE:  

               PRECIP     STAGE  RIV-FLOW   CONDUCT  BAT-LOAD
                   in        ft       cfs   umho/cm      volt
              Ccp-Rev   Ccp-Rev   Ccp-Rev   Ccp-Rev   Ccp-Rev
(US/Central)
12/07 00:00      0.00      9.03        88    152064     12.09
12/07 01:00      0.00      9.03        88    151177     12.09
12/07 02:00      0.00      9.03        88    155677     12.09
12/07 03:00      0.00      9.03        88    150032     12.01
12/07 04:00      0.00      9.03        88    153990     12.01
12/07 05:00      0.00      9.03        88    152654     12.01
12/07 06:00      0.00      9.03        88    148037     11.93
12/07 07:00      0.00      9.03        88    152194     11.86
12/07 08:00      0.00      9.02        88    151762     10.98
12/07 09:00      0.00      9.03        88    155659     11.77
12/07 10:00      0.00      9.03        88    157522     13.05
12/07 11:00      0.00      9.03        88    149998     13.21
12/07 12:00      0.00      9.03        88    141635     13.21
12/07 13:00      0.00      9.03        88    150878     13.29
12/07 14:00      0.00      9.03        88    157522     13.44
12/07 15:00      0.00      9.03        88    148307     13.60
12/07 16:00      0.00      9.03        88    144758      ----
12/07 17:00      0.00      9.02        88    152028     13.68
12/07 18:00      0.00      9.02        88    148151     12.97
12/07 19:00      0.00      9.02        88    153504     12.25
12/07 20:00      0.00      9.02        88    162711     12.09
12/07 21:00      0.00      9.02        88    146212     12.09
12/07 22:00      0.00      9.02        88    149117     12.09
12/07 23:00      0.00      9.02        88    145384     12.09